Location: Unspecified
(25.0328°N, 0.0000°E)
Time: 08:11:11
(UTC+00:00)

Skynet4D Del rocket - Pass Details

Date: 29 December 1899
Orbit: 763 x 1288 km, 26.9° (Epoch: 29 March)

Event Time Altitude Azimuth Distance (km) Brightness Sun altitude
Rises 21:52:15 0° 281° (W) 4,033 7.6 -64.0°
Enters shadow 21:52:20 - 281° (W) 4,003 7.6 -64.0°
Exits shadow 22:27:46 -30° 113° (ESE) 8,437 9.0 -72.0°
